Wind_Speed
83 80 76 70 69 67 69 76 79 79 75 72 66 63 61 60 57 53 52 49 46 43 38 36 35 35 33 34 35 28 27 25 22 18 17 18 18 18 16 16 18 19 20 21 21 22 23 25 26
74 76 82 77 68 65 64 71 77 81 79 75 73 69 65 63 57 52 52 52 47 43 39 36 37 33 32 32 34 32 25 25 23 17 19 17 17 16 14 13 13 15 17 18 19 19 19 19 20
77 76 76 79 73 62 68 76 74 79 81 77 76 75 70 63 62 54 54 52 49 45 40 39 37 35 35 34 31 25 23 23 24 17 17 15 14 14 14 13 12 13 14 15 15 14 15 17 18
80 76 76 73 77 72 71 77 81 76 78 76 74 75 70 68 66 62 55 53 52 49 42 43 41 39 35 34 35 26 26 23 24 20 16 11 12 13 14 14 14 13 13 14 15 16 16 16 18
82 81 77 74 74 80 77 76 84 81 78 78 78 76 74 70 70 63 60 59 54 52 44 45 44 42 39 36 30 27 25 25 24 24 19 14 13 13 13 14 15 14 14 15 15 16 17 18 18
81 84 82 74 78 86 86 83 85 84 82 80 82 78 73 74 72 69 67 64 55 55 49 46 46 42 39 40 34 31 28 28 26 25 20 17 14 14 12 12 12 11 12 13 15 16 17 18 19
85 83 76 80 84 83 90 90 87 87 87 80 85 84 77 74 73 71 68 66 63 57 55 48 46 45 42 40 38 33 31 31 30 26 24 19 15 15 13 12 12 12 13 14 14 16 17 17 19
88 84 80 78 84 88 92 99 98 96 91 91 85 85 83 80 76 77 69 69 67 60 56 52 49 49 46 43 40 37 34 32 33 30 27 24 21 18 17 17 16 17 17 16 17 18 19 20 21
88 90 82 89 85 91 98 100 104 100 91 89 90 82 88 83 78 75 70 70 72 66 61 55 56 51 48 45 44 40 37 35 35 33 30 28 25 23 20 18 17 17 18 19 20 20 21 22 23
89 87 90 92 91 90 97 100 105 104 98 91 91 82 85 89 85 78 75 74 73 70 66 57 56 54 50 48 48 43 41 38 37 36 32 32 28 26 25 23 22 22 22 22 21 21 22 22 26
89 87 92 93 96 93 93 102 100 104 100 97 93 88 84 87 89 85 80 78 71 75 69 66 60 56 52 50 50 45 44 40 39 37 36 33 33 30 29 27 27 27 27 25 25 25 25 27 28
86 89 91 92 93 94 93 98 104 100 98 102 101 89 90 82 90 88 87 83 73 78 75 69 61 58 54 54 52 45 47 43 40 37 37 37 33 34 34 31 32 31 32 31 30 29 29 30 32
87 90 91 92 92 90 90 94 102 103 100 101 104 97 87 92 83 90 87 86 81 80 78 73 66 61 58 51 51 49 47 45 42 41 40 37 37 34 32 34 36 36 37 37 34 35 36 36 36
90 89 90 91 92 92 92 90 97 96 107 107 104 104 92 89 95 85 90 88 87 82 80 77 69 65 62 56 54 53 49 48 48 45 46 43 39 38 38 36 36 37 35 33 35 35 36 39 40
81 83 88 90 93 94 98 93 88 100 111 113 107 105 99 93 96 93 84 90 90 87 83 79 75 72 67 62 57 56 50 49 48 49 48 46 45 45 44 39 38 40 39 37 37 36 35 34 37
72 73 81 91 96 91 95 88 94 105 112 112 111 106 103 97 92 94 85 88 93 90 85 83 77 76 72 65 62 60 54 54 51 47 51 47 44 44 46 43 39 42 42 41 41 40 39 38 38
65 67 73 87 91 89 83 82 96 106 110 111 113 107 103 101 92 89 88 80 86 93 88 82 80 77 74 72 67 63 59 57 55 51 48 49 49 49 47 42 46 45 45 44 44 44 44 43 45
59 58 68 78 92 89 80 83 98 104 107 110 113 112 104 101 93 89 80 84 86 83 91 89 83 79 76 72 69 66 62 63 56 54 55 53 52 53 52 51 46 49 50 47 46 48 50 50 52
47 52 62 73 88 85 81 83 92 96 102 105 107 112 105 100 98 94 94 65 73 79 82 89 88 83 81 76 74 71 67 63 64 59 53 53 57 57 55 54 52 51 51 51 51 50 52 54 54
39 45 52 65 78 76 74 74 84 92 96 103 104 109 107 103 100 97 98 91 80 82 77 76 85 85 85 81 77 74 69 66 65 66 62 59 54 56 58 57 56 54 52 56 57 52 52 55 54
31 39 44 59 69 70 70 70 73 82 91 99 102 106 108 103 99 97 95 92 73 78 79 75 72 81 86 85 83 78 74 72 69 69 69 66 64 55 53 56 55 53 54 55 56 55 55 52 54
26 32 38 50 55 61 64 66 69 77 84 90 97 102 107 104 98 95 93 95 87 78 80 79 73 66 78 87 86 83 76 75 74 73 74 73 65 67 62 59 59 59 59 58 58 59 61 62 62
17 25 33 39 46 50 53 56 71 78 74 79 85 95 103 104 99 95 94 91 94 88 79 79 73 70 62 68 79 84 82 79 79 78 78 75 73 71 70 65 60 60 61 61 62 65 67 63 65
10 16 26 32 37 46 50 53 64 64 69 77 82 85 95 104 102 96 97 92 92 96 83 73 73 71 67 63 65 71 79 81 79 77 77 76 74 71 71 69 66 67 65 66 65 66 67 69 73
8 10 18 23 29 34 40 46 64 61 71 73 81 85 88 99 101 97 96 93 90 85 78 71 70 67 66 66 61 67 74 75 77 79 78 79 75 75 74 73 73 74 73 75 73 74 75 75 77
8 5 11 18 25 31 37 47 59 56 63 68 81 82 87 87 94 97 91 91 85 83 78 74 72 68 68 68 67 63 66 73 74 76 78 76 76 77 78 78 78 77 76 75 77 80 79 81 84
14 4 4 11 21 27 33 42 54 54 59 64 73 78 78 84 89 89 89 89 86 81 79 75 75 73 71 69 68 68 69 66 69 75 76 77 77 77 79 79 78 77 78 80 78 80 83 84 85
14 8 4 10 14 23 28 37 50 49 55 59 63 71 72 82 81 84 84 82 84 84 83 77 72 71 70 67 67 66 69 69 71 70 70 74 74 76 77 77 79 81 81 83 82 79 81 84 85
13 11 7 10 12 17 24 35 45 44 53 55 62 67 67 74 73 84 82 83 86 87 82 76 75 71 66 66 64 66 69 70 70 68 67 73 75 77 79 78 78 78 76 74 76 80 83 86 88
15 12 10 10 11 11 17 25 36 41 52 53 58 60 63 67 74 81 84 83 81 79 80 78 74 71 68 65 64 64 68 68 70 70 68 68 70 74 77 79 82 83 83 80 80 84 89 91 91
Wind_Direction
252 253 250 250 248 245 244 241 240 239 238 238 237 236 238 242 241 239 244 245 252 252 255 255 262 267 271 280 282 291 297 290 292 289 284 277 271 264 261 262 260 259 252 252 254 250 249 252 256
252 253 245 245 243 243 241 243 240 238 236 239 239 238 236 237 240 235 240 243 246 247 250 247 257 257 265 273 281 281 287 286 290 286 286 280 269 267 260 263 266 265 257 257 257 256 254 255 257
250 250 248 245 234 241 239 239 240 236 235 235 238 238 236 233 232 229 232 237 240 239 245 242 245 253 261 270 273 273 277 279 285 276 291 278 269 265 260 257 260 260 256 252 254 254 254 255 257
252 247 249 247 236 235 237 238 238 236 232 230 231 234 233 232 232 226 230 235 234 234 236 238 241 250 251 262 269 267 275 268 278 270 278 275 266 261 258 255 251 250 250 247 247 254 257 262 264
253 249 245 244 238 235 234 235 237 236 233 227 228 231 232 232 230 227 226 232 231 231 231 235 239 245 249 255 249 258 267 263 268 268 269 269 274 267 256 256 256 257 257 259 260 262 264 264 265
257 252 245 240 239 234 233 233 236 234 234 229 227 228 228 228 228 226 224 228 231 228 225 233 236 239 244 250 247 253 254 260 258 261 264 262 265 268 258 250 249 256 256 261 264 262 264 264 262
257 253 250 245 240 236 234 236 235 233 231 230 225 227 226 226 228 226 223 224 226 228 226 228 232 238 240 241 244 248 248 254 253 254 254 259 255 257 261 258 259 259 261 265 269 266 265 266 262
254 252 250 247 242 234 234 233 231 233 229 229 227 225 226 226 225 229 221 224 225 224 226 222 233 236 238 237 236 245 240 244 249 250 250 251 256 255 254 258 260 263 266 268 272 274 273 267 262
252 252 246 246 239 235 234 232 232 232 231 230 232 224 226 224 226 225 223 225 224 223 222 227 230 234 236 233 235 238 233 241 244 249 247 247 252 256 253 255 259 261 263 268 272 272 270 269 266
257 252 248 245 241 236 234 231 231 231 231 230 228 225 226 224 225 223 223 225 227 223 223 223 229 232 234 231 234 235 233 236 239 244 248 248 248 252 255 257 257 260 263 265 266 269 269 269 269
258 254 248 246 245 240 232 234 230 230 231 233 233 224 225 226 222 222 223 225 228 225 223 226 226 229 233 230 230 235 233 236 237 241 246 250 248 250 252 256 259 259 261 263 266 267 266 264 267
258 254 249 244 242 241 235 230 230 229 230 231 231 227 223 227 225 224 223 225 225 227 224 225 226 227 231 231 229 233 235 235 238 240 242 246 251 253 254 255 259 263 265 265 267 269 269 270 272
257 251 249 246 242 239 238 230 229 226 228 229 230 226 223 226 227 222 225 224 226 229 226 224 226 225 226 230 231 231 236 237 240 243 244 245 249 253 256 257 260 262 265 267 269 270 271 272 273
254 249 247 246 242 239 234 232 227 228 228 227 226 225 221 222 227 225 222 224 224 228 225 224 224 226 227 227 229 232 239 245 243 246 245 247 249 254 256 260 265 264 266 269 269 273 275 273 274
254 250 245 242 242 237 232 226 225 228 225 225 224 225 218 220 224 225 223 221 222 224 227 224 223 226 228 230 228 231 235 242 246 247 249 249 246 250 252 255 262 267 265 265 267 269 273 275 276
254 248 241 237 238 237 233 226 222 224 226 223 223 224 218 218 221 224 224 222 221 223 226 225 224 226 228 230 230 234 235 240 242 249 253 252 250 253 255 253 254 263 270 268 269 270 270 273 274
250 241 237 236 237 236 232 226 228 220 224 222 222 222 221 216 217 221 225 225 224 223 224 224 224 224 228 230 232 233 237 240 241 246 251 252 251 253 257 262 258 258 263 268 272 272 272 273 275
250 239 236 230 236 236 232 223 225 222 219 222 220 220 220 215 213 218 219 226 226 224 223 223 225 225 225 230 233 235 237 239 241 246 249 252 252 257 257 260 268 267 267 269 271 274 275 277 278
251 242 233 228 230 233 232 226 223 223 219 220 219 219 219 216 210 212 212 212 214 218 223 225 224 224 225 228 233 236 237 239 242 243 246 254 257 259 260 260 266 270 272 271 272 272 275 277 280
255 244 234 231 230 231 231 226 221 219 217 217 217 217 217 216 210 211 214 219 224 221 224 223 225 225 225 228 231 233 239 241 242 245 247 247 256 258 258 258 263 270 274 275 274 278 282 280 278
254 249 238 233 230 229 230 225 223 221 216 215 217 214 215 216 213 209 213 217 221 224 225 226 223 225 225 228 231 234 238 240 242 244 247 249 251 258 263 261 262 266 271 272 274 275 281 282 284
262 247 240 237 233 228 221 220 219 221 217 215 216 213 214 212 216 208 212 213 215 220 220 225 226 225 226 227 230 235 238 237 240 244 247 250 253 253 257 260 264 265 267 270 271 275 275 279 282
281 251 243 236 235 228 221 216 218 217 214 213 215 215 211 213 212 210 212 214 217 220 220 224 228 229 230 231 233 234 237 239 240 243 247 251 253 255 257 260 263 266 268 268 270 274 275 280 282
283 252 243 237 232 223 214 202 220 210 212 209 210 212 213 211 211 209 210 213 217 220 223 225 230 233 233 234 237 238 237 237 241 245 247 251 254 256 258 260 263 264 268 270 272 274 277 280 281
308 256 239 232 229 225 215 201 221 202 208 207 208 211 213 213 209 209 210 212 217 221 223 224 228 232 234 234 239 240 241 241 243 244 248 250 252 256 259 261 262 264 267 269 272 274 278 282 280
10 319 242 221 212 215 212 197 211 199 201 207 207 209 212 212 208 206 210 212 216 218 221 223 226 230 234 236 237 242 244 245 247 247 249 251 253 256 259 261 263 265 266 268 271 275 278 278 281
21 20 185 216 211 205 200 192 201 194 192 202 206 208 208 210 209 205 205 211 217 217 218 219 222 225 230 234 238 241 246 249 250 250 251 252 254 257 259 262 264 264 266 269 270 273 275 276 278
51 67 131 172 197 198 193 185 191 193 186 193 200 204 204 207 208 202 204 207 215 220 221 222 226 230 232 235 239 243 246 248 250 252 254 254 255 258 260 263 264 265 267 270 273 275 276 276 278
45 82 126 153 168 187 181 180 180 182 179 186 192 198 199 203 203 201 204 205 212 218 220 222 226 231 233 235 238 241 245 249 251 254 257 258 258 259 261 262 263 265 265 269 271 272 274 276 278
53 84 96 115 107 124 144 169 172 173 173 180 186 191 197 200 202 203 203 206 212 219 222 223 227 230 233 236 238 240 242 246 252 256 257 260 261 261 263 264 264 265 267 267 268 270 273 275 279
Height
10722 10723 10728 10733 10739 10750 10756 10753 10751 10757 10761 10768 10773 10776 10783 10788 10797 10801 10800 10803 10810 10813 10817 10819 10821 10821 10823 10825 10827 10827 10827 10827 10827 10826 10825 10824 10824 10823 10823 10823 10824 10825 10825 10825 10826 10827 10827 10827 10827
10703 10704 10711 10717 10730 10739 10746 10734 10739 10739 10747 10755 10760 10764 10773 10781 10790 10793 10790 10794 10802 10806 10810 10813 10815 10816 10818 10819 10821 10823 10824 10824 10824 10823 10822 10821 10822 10821 10821 10821 10822 10822 10822 10822 10823 10823 10823 10823 10823
10685 10689 10694 10703 10717 10733 10730 10720 10719 10724 10734 10742 10748 10751 10762 10772 10775 10780 10783 10787 10794 10798 10803 10806 10809 10811 10812 10814 10816 10818 10821 10821 10821 10821 10819 10819 10819 10818 10818 10818 10819 10819 10819 10820 10820 10821 10820 10820 10820
10665 10669 10676 10689 10703 10708 10712 10706 10705 10710 10718 10729 10734 10740 10750 10758 10762 10768 10781 10777 10785 10788 10795 10798 10802 10805 10806 10809 10812 10814 10815 10817 10818 10817 10818 10817 10816 10815 10815 10816 10815 10816 10817 10817 10817 10817 10817 10817 10816
10644 10646 10656 10673 10686 10688 10692 10690 10685 10697 10705 10718 10718 10728 10738 10747 10749 10761 10771 10767 10773 10778 10787 10791 10794 10798 10799 10803 10806 10808 10810 10812 10814 10814 10815 10815 10814 10813 10812 10812 10813 10813 10814 10815 10815 10814 10814 10813 10812
10620 10621 10637 10654 10659 10661 10669 10672 10665 10681 10689 10701 10706 10712 10723 10730 10736 10750 10759 10758 10762 10768 10776 10782 10785 10790 10792 10796 10800 10802 10805 10807 10809 10810 10811 10811 10811 10811 10810 10810 10810 10811 10811 10812 10812 10811 10810 10810 10809
10594 10599 10617 10628 10634 10642 10647 10646 10656 10657 10668 10681 10692 10698 10709 10720 10725 10736 10747 10748 10749 10758 10766 10773 10777 10782 10785 10789 10793 10796 10799 10801 10803 10804 10807 10808 10807 10808 10808 10808 10808 10808 10808 10808 10808 10808 10807 10806 10805
10572 10576 10594 10602 10608 10617 10618 10624 10628 10628 10655 10664 10674 10688 10697 10703 10714 10717 10737 10738 10741 10748 10756 10763 10769 10775 10778 10782 10786 10789 10791 10794 10797 10799 10801 10803 10803 10803 10804 10804 10804 10805 10805 10805 10804 10804 10803 10802 10801
10544 10555 10571 10572 10581 10591 10592 10599 10607 10619 10639 10652 10661 10683 10682 10693 10701 10711 10727 10727 10731 10737 10744 10754 10761 10767 10771 10775 10778 10782 10784 10787 10790 10793 10795 10797 10798 10798 10799 10800 10800 10800 10800 10800 10800 10800 10799 10798 10796
10518 10529 10539 10542 10549 10562 10571 10575 10590 10603 10621 10633 10642 10664 10671 10677 10685 10701 10710 10713 10720 10728 10736 10743 10752 10757 10762 10766 10770 10774 10777 10780 10783 10787 10789 10790 10791 10793 10793 10794 10795 10795 10795 10795 10795 10794 10794 10792 10791
10490 10504 10505 10514 10520 10533 10549 10556 10570 10585 10602 10617 10624 10648 10657 10660 10671 10683 10694 10701 10709 10718 10726 10732 10741 10747 10753 10757 10761 10766 10770 10773 10775 10778 10782 10783 10785 10786 10787 10788 10789 10789 10789 10789 10789 10789 10788 10787 10786
10467 10470 10474 10484 10493 10504 10518 10531 10545 10562 10582 10588 10598 10626 10641 10648 10657 10668 10679 10687 10699 10705 10713 10723 10731 10737 10744 10749 10752 10759 10762 10765 10769 10771 10773 10775 10778 10779 10780 10781 10782 10783 10782 10782 10783 10782 10782 10782 10780
10433 10434 10442 10454 10467 10479 10492 10508 10517 10545 10555 10563 10574 10600 10621 10632 10638 10654 10664 10676 10687 10693 10701 10713 10722 10728 10733 10740 10745 10749 10755 10758 10761 10764 10765 10768 10770 10772 10772 10773 10774 10775 10775 10776 10775 10775 10774 10774 10774
10392 10403 10414 10423 10438 10450 10464 10478 10496 10524 10528 10534 10551 10571 10600 10613 10618 10631 10649 10661 10671 10678 10688 10700 10712 10717 10723 10729 10736 10740 10746 10750 10753 10756 10758 10761 10763 10764 10764 10765 10766 10767 10767 10768 10767 10767 10766 10765 10765
10360 10371 10383 10397 10404 10414 10422 10450 10489 10487 10487 10507 10530 10544 10576 10591 10599 10616 10631 10641 10651 10661 10673 10687 10699 10705 10712 10721 10726 10731 10736 10741 10744 10747 10750 10753 10755 10755 10755 10758 10758 10758 10760 10760 10759 10758 10758 10757 10756
10333 10343 10353 10360 10363 10388 10393 10446 10453 10450 10459 10490 10507 10527 10553 10568 10586 10602 10615 10626 10636 10649 10659 10674 10685 10694 10702 10710 10716 10722 10727 10731 10735 10739 10741 10744 10746 10745 10745 10751 10751 10750 10751 10751 10751 10749 10749 10748 10747
10298 10315 10329 10334 10341 10357 10378 10419 10419 10420 10436 10464 10486 10509 10532 10552 10573 10590 10604 10613 10625 10636 10648 10661 10672 10681 10689 10698 10704 10710 10716 10721 10724 10729 10731 10733 10735 10734 10737 10742 10742 10742 10742 10742 10741 10740 10739 10738 10736
10276 10293 10300 10316 10314 10330 10356 10383 10377 10396 10420 10438 10463 10486 10511 10535 10562 10576 10590 10595 10606 10620 10632 10646 10657 10669 10678 10687 10694 10700 10704 10710 10714 10718 10721 10724 10724 10725 10729 10732 10733 10733 10732 10733 10732 10730 10729 10728 10726
10260 10272 10278 10284 10288 10304 10331 10349 10361 10383 10409 10425 10450 10471 10496 10521 10541 10557 10568 10569 10591 10605 10618 10632 10645 10656 10666 10674 10682 10688 10693 10700 10705 10709 10712 10715 10715 10716 10720 10723 10723 10722 10723 10723 10721 10720 10719 10717 10715
10250 10253 10262 10268 10271 10289 10312 10332 10343 10361 10388 10409 10427 10453 10483 10500 10524 10544 10556 10567 10574 10598 10610 10621 10633 10645 10654 10661 10669 10678 10684 10690 10695 10699 10701 10702 10704 10706 10709 10711 10712 10713 10712 10711 10709 10709 10708 10705 10703
10238 10241 10250 10250 10255 10281 10297 10320 10334 10355 10373 10388 10408 10436 10462 10489 10512 10532 10550 10564 10573 10582 10601 10611 10621 10630 10641 10649 10657 10668 10673 10679 10682 10684 10688 10690 10695 10699 10701 10700 10701 10701 10700 10699 10698 10696 10696 10693 10690
10229 10230 10236 10239 10249 10267 10274 10297 10320 10334 10355 10378 10397 10419 10446 10474 10500 10524 10535 10547 10554 10569 10587 10599 10611 10619 10629 10639 10647 10656 10661 10666 10670 10673 10676 10679 10684 10686 10686 10688 10689 10689 10688 10687 10686 10683 10682 10680 10676
10222 10224 10225 10231 10241 10257 10269 10290 10293 10310 10340 10369 10393 10412 10433 10461 10482 10509 10526 10540 10547 10559 10576 10590 10602 10611 10620 10630 10637 10644 10650 10654 10658 10662 10664 10667 10671 10673 10674 10676 10677 10676 10675 10673 10672 10670 10668 10664 10661
10216 10216 10219 10225 10234 10240 10252 10275 10280 10311 10333 10353 10373 10398 10422 10439 10468 10488 10506 10524 10537 10549 10567 10586 10595 10602 10611 10620 10626 10631 10636 10640 10645 10649 10652 10654 10658 10660 10661 10661 10663 10663 10661 10659 10657 10655 10652 10648 10644
10214 10213 10215 10221 10228 10238 10250 10269 10267 10293 10313 10338 10363 10383 10404 10428 10454 10478 10497 10512 10529 10546 10563 10577 10584 10593 10600 10608 10613 10617 10621 10626 10633 10637 10639 10642 10645 10646 10647 10649 10649 10648 10646 10644 10642 10639 10635 10631 10625
10215 10214 10214 10216 10220 10228 10240 10256 10263 10286 10309 10334 10351 10371 10393 10419 10445 10468 10492 10509 10519 10534 10552 10564 10573 10580 10586 10594 10601 10606 10611 10617 10621 10622 10626 10629 10631 10632 10633 10635 10634 10633 10632 10629 10626 10623 10619 10614 10609
10218 10215 10214 10217 10220 10225 10234 10249 10261 10279 10302 10324 10348 10369 10389 10413 10435 10459 10482 10502 10515 10527 10538 10547 10554 10563 10573 10582 10591 10597 10601 10606 10608 10611 10614 10615 10617 10618 10619 10620 10619 10618 10616 10614 10610 10606 10603 10598 10593
10221 10219 10218 10217 10221 10226 10234 10246 10260 10279 10297 10317 10342 10362 10382 10403 10428 10452 10475 10494 10503 10512 10521 10537 10548 10557 10566 10575 10582 10588 10590 10593 10594 10598 10600 10603 10604 10604 10605 10604 10603 10601 10600 10598 10594 10591 10585 10579 10573
10228 10224 10223 10223 10226 10232 10239 10246 10259 10277 10297 10315 10333 10356 10381 10402 10425 10445 10464 10479 10484 10493 10513 10528 10535 10546 10559 10566 10570 10574 10579 10580 10582 10585 10589 10588 10590 10590 10589 10589 10587 10585 10582 10581 10577 10572 10567 10559 10552
10237 10234 10232 10232 10237 10244 10251 10264 10273 10286 10301 10316 10336 10360 10380 10399 10416 10430 10452 10472 10482 10492 10505 10518 10528 10538 10546 10553 10558 10561 10564 10567 10571 10573 10575 10575 10575 10575 10573 10572 10570 10568 10565 10562 10558 10553 10547 10540 10533